Newton, IA

5:30 AM CST on December 13, 2017 (GMT -0600)
Newton Municipal

Weather History for KTNU - March, 2014

Change the Weather History Date:

Sunday, March 30, 2014

  Actual Average Record
Temperature  
Mean Temperature 50 °F -  
Max Temperature 69 °F 55 °F 79 °F (1986)
Min Temperature 32 °F 33 °F 11 °F (1975)
Degree Days  
Heating Degree Days 14    
Moisture  
Dew Point 31 °F    
Average Humidity 56    
Maximum Humidity 93    
Minimum Humidity 23    
Precipitation  
Precipitation 0.00 in - - ()
Sea Level Pressure  
Sea Level Pressure 29.98 in    
Wind  
Wind Speed 15 mph (SSE)    
Max Wind Speed 25 mph    
Max Gust Speed 33 mph    
Visibility 9 miles    
Events      
Averages and records for this station are not official NWS values.
T = Trace of Precipitation, MM = Missing Value Source: NWS Daily Summary

Daily Weather History Graph

Daily Weather History Graph

Search for Another Location

Airport or City:

Trip Planner

Search our weather history database for the weather conditions in past years. The results will help you decide how hot, cold, wet, or windy it might be!

Date:

Astronomy

Mar. 30, 2014 Rise Set
Actual Time 6:58 AM CDT 7:35 PM CDT
Civil Twilight 6:30 AM CDT 8:03 PM CDT
Nautical Twilight 5:57 AM CDT 8:36 PM CDT
Astronomical Twilight 5:23 AM CDT 9:10 PM CDT
Moon 6:44 AM CDT (3/30) 7:49 PM CDT (3/30)
Length of Visible Light 13h 32m
Length of Day
12h 36m
Waning Crescent, 0% of the Moon is Illuminated
Mar 30
Waning Crescent
Mar 30
New
Apr 7
First Quarter
Apr 15
Full
Apr 22
Last Quarter

Hourly Weather History & Observations

Time (CDT) Temp. Windchill Dew Point Humidity Pressure Visibility Wind Dir Wind Speed Gust Speed Precip Events Conditions
12:15 AM 35.6 °F 29.2 °F 30.2 °F 81% 30.18 in 10.0 mi SSE 8.1 mph - N/A   Clear
12:35 AM 35.6 °F 28.6 °F 30.2 °F 81% 30.18 in 10.0 mi SSE 9.2 mph - N/A   Clear
12:55 AM 33.8 °F 24.8 °F 30.2 °F 87% 30.17 in 10.0 mi SSE 12.7 mph - N/A   Clear
1:15 AM 35.6 °F 27.5 °F 30.2 °F 81% 30.15 in 10.0 mi SSE 11.5 mph - N/A   Clear
1:35 AM 35.6 °F 27.1 °F 30.2 °F 81% 30.14 in 10.0 mi SSE 12.7 mph - N/A   Clear
1:55 AM 37.4 °F 29.3 °F 30.2 °F 75% 30.13 in 10.0 mi South 12.7 mph - N/A   Clear
2:15 AM 35.6 °F 27.5 °F 30.2 °F 81% 30.13 in 10.0 mi South 11.5 mph - N/A   Clear
2:35 AM 35.6 °F 28.0 °F 30.2 °F 81% 30.12 in 10.0 mi South 10.4 mph - N/A   Clear
2:55 AM 33.8 °F 25.8 °F 30.2 °F 87% 30.12 in 10.0 mi SSE 10.4 mph - N/A   Clear
3:15 AM 32.0 °F 23.0 °F 30.2 °F 93% 30.11 in 10.0 mi SSE 11.5 mph - N/A   Clear
3:35 AM 32.0 °F 23.6 °F 30.2 °F 93% 30.11 in 9.0 mi SE 10.4 mph - N/A   Clear
3:55 AM 33.8 °F 25.3 °F 30.2 °F 87% 30.10 in 10.0 mi SSE 11.5 mph - N/A   Partly Cloudy
4:15 AM 33.8 °F 24.3 °F 30.2 °F 87% 30.09 in 10.0 mi SSE 13.8 mph - N/A   Scattered Clouds
4:35 AM 33.8 °F 24.3 °F 30.2 °F 87% 30.08 in 9.0 mi SSE 13.8 mph - N/A   Overcast
4:55 AM 33.8 °F 24.3 °F 30.2 °F 87% 30.08 in 10.0 mi SSE 13.8 mph - N/A   Overcast
5:15 AM 33.8 °F 25.3 °F 30.2 °F 87% 30.09 in 10.0 mi SSE 11.5 mph - N/A   Overcast
5:35 AM 33.8 °F 23.9 °F 30.2 °F 87% 30.09 in 8.0 mi SSE 15.0 mph - N/A   Overcast
5:55 AM 33.8 °F 23.9 °F 30.2 °F 87% 30.09 in 8.0 mi SSE 15.0 mph - N/A   Overcast
6:15 AM 33.8 °F 24.3 °F 30.2 °F 87% 30.09 in 8.0 mi SSE 13.8 mph - N/A   Overcast
6:35 AM 33.8 °F 24.3 °F 30.2 °F 87% 30.09 in 8.0 mi SSE 13.8 mph - N/A   Overcast
6:55 AM 33.8 °F 24.3 °F 30.2 °F 87% 30.09 in 7.0 mi SSE 13.8 mph - N/A   Mostly Cloudy
7:15 AM 32.0 °F 22.5 °F 30.2 °F 93% 30.09 in 6.0 mi SSE 12.7 mph - N/A   Scattered Clouds
7:35 AM 33.8 °F 24.8 °F 30.2 °F 87% 30.09 in 6.0 mi SSE 12.7 mph - N/A   Partly Cloudy
7:55 AM 35.6 °F 25.9 °F 32.0 °F 87% 30.08 in 6.0 mi SSE 16.1 mph - N/A   Clear
8:15 AM 35.6 °F 25.9 °F 32.0 °F 87% 30.08 in 7.0 mi SSE 16.1 mph - N/A   Clear
8:35 AM 37.4 °F 27.5 °F 32.0 °F 81% 30.06 in 7.0 mi SSE 18.4 mph - N/A   Clear
8:55 AM 39.2 °F 30.2 °F 33.8 °F 81% 30.05 in 8.0 mi SSE 17.3 mph - N/A   Clear
9:15 AM 41.0 °F 32.5 °F 33.8 °F 76% 30.05 in 8.0 mi SSE 17.3 mph 23.0 mph N/A   Clear
9:35 AM 44.6 °F 37.2 °F 35.6 °F 71% 30.05 in 9.0 mi South 17.3 mph - N/A   Clear
9:55 AM 48.2 °F - 35.6 °F 62% 30.04 in 9.0 mi South 19.6 mph 25.3 mph N/A   Clear
10:15 AM 50.0 °F - 33.8 °F 54% 30.04 in 9.0 mi South 21.9 mph - N/A   Clear
10:35 AM 50.0 °F - 33.8 °F 54% 30.04 in 10.0 mi South 18.4 mph 26.5 mph N/A   Clear
10:55 AM 51.8 °F - 33.8 °F 50% 30.04 in 10.0 mi South 20.7 mph - N/A   Clear
11:15 AM 55.4 °F - 33.8 °F 44% 30.03 in 10.0 mi South 20.7 mph - N/A   Clear
11:35 AM 57.2 °F - 33.8 °F 41% 30.01 in 10.0 mi South 23.0 mph 28.8 mph N/A   Clear
11:55 AM 59.0 °F - 33.8 °F 39% 30.01 in 10.0 mi South 21.9 mph 27.6 mph N/A   Clear
12:15 PM 60.8 °F - 33.8 °F 36% 29.99 in 8.0 mi South 21.9 mph - N/A   Clear
12:35 PM 62.6 °F - 32.0 °F 32% 29.98 in 10.0 mi South 21.9 mph - N/A   Clear
12:55 PM 64.4 °F - 32.0 °F 30% 29.97 in 10.0 mi South 23.0 mph 29.9 mph N/A   Clear
1:15 PM 64.4 °F - 33.8 °F 32% 29.97 in 10.0 mi South 17.3 mph 28.8 mph N/A   Clear
1:35 PM 66.2 °F - 32.0 °F 28% 29.95 in 10.0 mi South 21.9 mph 27.6 mph N/A   Clear
1:55 PM 66.2 °F - 32.0 °F 28% 29.94 in 10.0 mi South 19.6 mph 32.2 mph N/A   Clear
2:15 PM 68.0 °F - 32.0 °F 26% 29.92 in 10.0 mi South 21.9 mph 33.4 mph N/A   Clear
2:35 PM 68.0 °F - 32.0 °F 26% 29.90 in 10.0 mi South 25.3 mph 32.2 mph N/A   Clear
2:55 PM 68.0 °F - 30.2 °F 24% 29.89 in 10.0 mi South 21.9 mph 33.4 mph N/A   Clear
3:15 PM 68.0 °F - 30.2 °F 24% 29.89 in 10.0 mi South 21.9 mph 27.6 mph N/A   Clear
3:35 PM 68.0 °F - 30.2 °F 24% 29.88 in 10.0 mi South 18.4 mph 27.6 mph N/A   Clear
3:55 PM 69.8 °F - 30.2 °F 23% 29.87 in 10.0 mi South 25.3 mph - N/A   Clear
4:15 PM 68.0 °F - 30.2 °F 24% 29.86 in 10.0 mi South 25.3 mph - N/A   Clear
4:35 PM 68.0 °F - 30.2 °F 24% 29.86 in 10.0 mi South 25.3 mph 31.1 mph N/A   Clear
4:55 PM 68.0 °F - 30.2 °F 24% 29.85 in 10.0 mi South 23.0 mph 29.9 mph N/A   Clear
5:15 PM 68.0 °F - 30.2 °F 24% 29.84 in 10.0 mi South 18.4 mph 26.5 mph N/A   Clear
5:35 PM 68.0 °F - 30.2 °F 24% 29.84 in 10.0 mi South 24.2 mph 32.2 mph N/A   Clear
5:55 PM 68.0 °F - 30.2 °F 24% 29.84 in 10.0 mi South 23.0 mph 28.8 mph N/A   Clear
6:15 PM 66.2 °F - 32.0 °F 28% 29.84 in 10.0 mi South 20.7 mph 28.8 mph N/A   Clear
6:35 PM 66.2 °F - 30.2 °F 26% 29.84 in 10.0 mi South 19.6 mph - N/A   Clear
6:55 PM 64.4 °F - 30.2 °F 28% 29.84 in 10.0 mi South 15.0 mph 23.0 mph N/A   Clear
7:15 PM 60.8 °F - 32.0 °F 34% 29.84 in 10.0 mi South 12.7 mph - N/A   Clear
7:35 PM 60.8 °F - 30.2 °F 31% 29.84 in 10.0 mi South 12.7 mph - N/A   Clear
7:55 PM 57.2 °F - 30.2 °F 36% 29.84 in 10.0 mi SSE 12.7 mph - N/A   Clear
8:15 PM 53.6 °F - 32.0 °F 44% 29.84 in 10.0 mi SSE 11.5 mph - N/A   Clear
8:35 PM 51.8 °F - 30.2 °F 44% 29.85 in 10.0 mi SE 11.5 mph - N/A   Clear
8:55 PM 53.6 °F - 30.2 °F 41% 29.85 in 10.0 mi SE 12.7 mph - N/A   Clear
9:15 PM 51.8 °F - 32.0 °F 47% 29.85 in 10.0 mi SE 13.8 mph - N/A   Clear
9:35 PM 50.0 °F - 32.0 °F 50% 29.85 in 10.0 mi SSE 11.5 mph - N/A   Clear
9:55 PM 55.4 °F - 32.0 °F 41% 29.84 in 10.0 mi SSE 18.4 mph - N/A   Clear
10:15 PM 53.6 °F - 32.0 °F 44% 29.84 in 10.0 mi SSE 15.0 mph - N/A   Clear
10:35 PM 51.8 °F - 32.0 °F 47% 29.84 in 10.0 mi SE 13.8 mph - N/A   Clear
10:55 PM 50.0 °F - 32.0 °F 50% 29.84 in 10.0 mi SE 13.8 mph - N/A   Clear
11:15 PM 50.0 °F - 32.0 °F 50% 29.84 in 10.0 mi SE 12.7 mph - N/A   Clear
11:35 PM 50.0 °F - 32.0 °F 50% 29.84 in 10.0 mi SE 13.8 mph - N/A   Clear
11:55 PM 48.2 °F - 32.0 °F 54% 29.84 in 10.0 mi SE 13.8 mph - N/A   Clear